Showing default

LCS 1, 1361

Orbit data source: Space-Track

LCS 1, 1361 is an American payload satellite in LEO that was launched on Thu, 06 May 1965 UTC via a TITAN IIIA launch vehicle from the Air Force Eastern Test Range (AFETR). Payload-class satellites include a variety of spacecraft equipped with specific instruments for various scientific and technological missions. These include communications satellites like Starlink; space stations such as the ISS; scientific satellites like the Hubble; Earth observation satellites from companies like Planet Labs, Umbra, and HawkEye 360; GPS; miniature CubeSats for education and research; and military/defense satellites.

Loading next visibility...
Identifier
1361, 1965-034C
Orbit
LEO
Last TLE update
7 hours ago
Origin
Manufacturer
ROHR/MITLL
Mission
Operational Defense Calibration
Bus & Motor
LCS, Unknown motor
Mass
34 kg wet, 34 kg dry
Launch date (UTC)
1965-05-06 (60 years ago)
Launch vehicle
TITAN IIIA
Launch site
Air Force Eastern Test Range (AFETR)
Object type
Payload
Rocket body
Debris
Shape & HBR
Sphere, 1.13 m
Radar Cross Section
1.003 m², Medium (>0.1 m² and < 1m²)

Expand to show TLE details & history

TLE from 7 hours ago
0 LCS 1
1 01361U 65034C   25128.95732323  .00000002  00000-0 -81874-3 0  9995
2 01361  32.1436  56.7993 0012018 131.3359 228.8174  9.89308399169857
Epoch: 2025-05-08T22:58Z
Definitive object data (Epoch: 2025-05-08T22:58:32.727Z)
Latitude
0.00002°
Longitude
-154.8574°
Altitude
2,794.101 km
Speed
6.592 km/s
True Right ascension
03h 47m 11s
True Declination
0° 00' 00"
Sunlit
Object was in daylight at TLE epoch
Visualization TLE readout
Latitude
-8.78581°
Longitude
-169.7424°
Altitude
2,797.854 km
Speed
6.589 km/s
Apparent Right ascension
02h 36m 51s
Apparent Declination
-21° 24' 44"
Sunlit
Object is in daylight
Visualization observer readout
Local Sidereal Time
14:16:49
Azimuth
345.545° N
Elevation
-71.011°
Doppler factor
1
Orbital elements
Apogee altitude
2,801.671 km
Perigee altitude
2,779.633 km
Semi-major axis
9,168.789 km
Eccentricity
0.0012018
Inclination
32.1436°
RAAN
56.7993°
Arg. of periapsis
131.3359°
True anomaly
228.71386°
Mean anomaly
228.8174°
Eccentric anomaly
228.76562°
Mean motion
2.47215 °/min
BSTAR
-0.00081874
Orbital period
145.62 mins
Loading maneuver chart data...
Loading SW <> Apogee altitude chart data...
Loading historical data...
Loading historical data...
Loading historical data...
Loading historical data...
Loading historical data...
Loading historical data...
Loading historical data...
Other satellites on launch #34 in the year 1965 (1965-05-06 UTC)

LCS 1 Visibility forecast

Observer location: undefined°, undefined°

Span
Click to sort rows by Start time (UTC) header in descending order
Start Az.
Max El. time (UTC)
Max El. Az.
Max El.
End time (UTC)
End Az.
17 mins2025-05-09 07:07:02.857Z256.055° W2025-05-09 07:16:02.857Z219.556° SW17.036°2025-05-09 07:24:02.857Z187.272° SSW
24 mins2025-05-09 20:53:02.857Z196.71° SSW2025-05-09 21:04:02.857Z146.57° SSE27.655°2025-05-09 21:17:02.857Z90.586° ESE
29 mins2025-05-09 23:27:02.857Z237.417° WSW2025-05-09 23:41:02.857Z163.396° S40.458°2025-05-09 23:56:02.857Z91.46° ESE
30 mins2025-05-10 02:04:02.857Z263.247° W2025-05-10 02:19:02.857Z180.253° SSW41.782°2025-05-10 02:34:02.857Z111.453° ESE
26 mins2025-05-10 04:43:02.857Z268.958° W2025-05-10 04:56:02.857Z205.765° SW33.147°2025-05-10 05:09:02.857Z146.586° SSE
|